Weather Roundup
Issued by NWS

Home | Current Version | Previous Version | Text Only | Print | Product List | Glossary On
Versions: 1 2 3 4 5 6 7 8 9 10 11 12 13 14 15 16 17 18 19 20 21 22 23 24 25 26 27 28 29 30 31 32 33 34 35 36 37 38 39 40 41 42 43 44 45 46 47 48 49 50
000
NZUS93 KARX 210259
HRRWXR

CURRENT HOURLY OBSERVATIONS ACROSS
MUCH OF THE UPPER MISSISSIPPI VALLEY
NATIONAL WEATHER SERVICE LA CROSSE WI
1000 PM CDT SAT SEP 20 2014


...SOUTHEAST MINNESOTA...


CITY           SKY/WX    TMP DP  RH WIND       PRES   REMARKS
ROCHESTER      PTCLDY    57  54  89 NW16G25   29.88R
ROCHESTER/MAYO FAIR      58  55  88 W21G28    29.86R
WINONA         MOCLDY    61  55  82 NW13G20   29.82R
AUSTIN         CLEAR     57  54  88 NW14G20   29.90R
ALBERT LEA     CLEAR     57  55  94 NW9G16    29.91R
DODGE CENTER   CLEAR     57  54  88 NW15      29.88R
PRESTON        MOCLDY    57  57  99 NW21G30   29.87R
OWATONNA       CLEAR     57  54  88 NW8       29.90R
FARIBAULT      CLEAR     57  54  88 W7        29.90R
$$

...ELSEWHERE IN MINNESOTA...


CITY           SKY/WX    TMP DP  RH WIND       PRES   REMARKS
MINNEAPOLIS    CLEAR     58  52  80 W8        29.85S
INTNL FALLS    LGT RAIN  51  49  92 NW14      29.81R
DULUTH         LGT RAIN  54  51  90 NW6       29.71R
RED WING       CLEAR     57  55  94 W12G17    29.84R
REDWOOD FALLS  CLEAR     58  54  86 W10       29.92S
MANKATO        CLEAR     57  52  82 W7        29.91S
WORTHINGTON    PTCLDY    57  48  72 NW10      30.00R
FAIRMONT       CLEAR     57  52  82 W10       29.95S
$$

...SOUTHWEST WISCONSIN...


CITY           SKY/WX    TMP DP  RH WIND       PRES   REMARKS
LA CROSSE      CLOUDY    62  59  90 W9        29.79R
PRAIRIE DU CHI LGT RAIN  62  60  94 NE3       29.77F
BOSCOBEL       LGT RAIN  64  61  90 CALM      29.75F
LONE ROCK      LGT RAIN  68  60  75 NW20G29   29.80R
PLATTEVILLE    MOCLDY    65  61  87 W14G24    29.81R
FORT MC COY    NOT AVBL
CAMP DOUGLAS   CLOUDY    59  59 100 NW3       29.73F
VIROQUA        MOCLDY    59  59 100 CALM      29.77F
WIS DELLS      LGT RAIN  66  57  72 W23G29    29.77R
$$

...ELSEWHERE IN WISCONSIN...


CITY           SKY/WX    TMP DP  RH WIND       PRES   REMARKS
MILWAUKEE      MOCLDY    68  64  87 SW8       29.73F
MADISON        CLOUDY    67  62  84 CALM      29.72F
GREEN BAY      CLOUDY    65  58  78 SW5       29.68F
EAU CLAIRE     NOT AVBL
BLACK RVR FLS  FAIR      60  60 100 CALM      29.75R
MEDFORD        RAIN      55  54  95 NW5       29.74F
WAUSAU         HVY RAIN  58  54  86 W23G37    29.73R FOG
WIS RAPIDS     RAIN      58  56  93 N3        29.74R FOG
MARSHFIELD     CLOUDY    57  54  89 NW8       29.73F
RICE LAKE      CLOUDY    57  53  87 W9        29.78S
$$

...NORTHEAST IOWA...


CITY           SKY/WX    TMP DP  RH WIND       PRES   REMARKS
WATERLOO       MOCLDY    61  58  90 NW10      29.88R
DUBUQUE        HVY RAIN  63  61  93 NW22G33   29.83R FOG
DECORAH        CLOUDY    59  59 100 VRB5      29.82R
MASON CITY     CLEAR     58  55  90 NW16G24   29.94R
CHARLES CITY   PTCLDY    59  55  88 NW17G28   29.89R
OELWEIN        CLOUDY    61  59  94 NW7G14    29.86S
$$

...ELSEWHERE IN IOWA...


CITY           SKY/WX    TMP DP  RH WIND       PRES   REMARKS
DES MOINES     PTCLDY    71  58  63 W9        29.88R
IOWA CITY        N/A     70  65  84 W8        29.82S
FORT DODGE     PTCLDY    63  52  67 N8        29.98R
MARSHALLTOWN   PTCLDY    64  58  80 N16       29.91R
CEDAR RAPIDS   PTCLDY    69  61  75 W14       29.82R
$$

...NORTHERN ILLINOIS...


CITY           SKY/WX    TMP DP  RH WIND       PRES   REMARKS
CHICAGO-OHARE  PTCLDY    69  63  81 SW3       29.77F
DUPAGE         CLOUDY    69  66  90 SW7       29.77F
CHICAGO-MIDWAY PTCLDY    71  67  87 SW6       29.77F
MOLINE         CLEAR     70  66  87 W8        29.80S
ROCKFORD       PTCLDY    67  63  87 SW6       29.77F
STERLING       PTCLDY    66  63  88 W3        29.77F
PEORIA         CLEAR     74  67  78 W8        29.84R
$$

NOTE: "FAIR" INDICATES FEW OR NO CLOUDS BELOW 12,000 FEET WITH NO
SIGNIFICANT WEATHER AND/OR OBSTRUCTIONS TO VISIBILITY. WIND
SPEEDS ARE IN MILES-PER-HOUR.



USA.gov is the U.S. government's official web portal to all federal, state and local government web resources and services.